TimeCDT,TemperatureF,Dew PointF,Humidity,Sea Level PressureIn,VisibilityMPH,Wind Direction,Wind SpeedMPH,Gust SpeedMPH,PrecipitationIn,Events,Conditions,WindDirDegrees,DateUTC
12:54 AM,55.9,48.0,75,29.78,10.0,North,19.6,-,N/A,,Overcast,350,2012-10-22 05:54:00
1:54 AM,55.0,48.0,77,29.77,8.0,North,17.3,-,N/A,,Overcast,350,2012-10-22 06:54:00
2:54 AM,55.0,48.0,77,29.76,8.0,North,17.3,-,N/A,,Overcast,350,2012-10-22 07:54:00
3:54 AM,55.9,48.0,75,29.76,8.0,North,13.8,-,N/A,,Overcast,360,2012-10-22 08:54:00
4:54 AM,55.9,48.9,77,29.75,8.0,North,12.7,-,N/A,,Overcast,360,2012-10-22 09:54:00
5:24 AM,55.4,48.2,77,29.78,8.0,North,13.8,-,N/A,,Overcast,350,2012-10-22 10:24:00
5:54 AM,55.9,48.9,77,29.76,8.0,North,12.7,-,N/A,,Overcast,350,2012-10-22 10:54:00
6:54 AM,55.9,48.9,77,29.78,8.0,North,11.5,-,0.00,,Overcast,360,2012-10-22 11:54:00
7:54 AM,55.9,48.9,77,29.80,7.0,North,15.0,-,N/A,,Overcast,360,2012-10-22 12:54:00
8:54 AM,55.9,50.0,80,29.81,6.0,North,12.7,-,0.00,,Haze,360,2012-10-22 13:54:00
9:54 AM,55.9,51.1,84,29.82,3.0,North,16.1,-,0.00,Rain,Light Rain,10,2012-10-22 14:54:00
10:54 AM,57.9,52.0,81,29.82,4.0,North,13.8,-,0.00,,Haze,360,2012-10-22 15:54:00
11:54 AM,59.0,51.1,75,29.82,5.0,North,17.3,-,N/A,,Haze,360,2012-10-22 16:54:00
12:04 PM,60.8,51.8,72,29.82,5.0,North,16.1,-,N/A,,Haze,10,2012-10-22 17:04:00
12:37 PM,62.6,51.8,68,29.82,5.0,North,18.4,-,N/A,,Haze,10,2012-10-22 17:37:00
12:54 PM,63.0,52.0,67,29.80,5.0,North,15.0,-,N/A,,Haze,360,2012-10-22 17:54:00
1:42 PM,64.4,53.6,68,29.80,5.0,NNE,12.7,-,N/A,,Haze,20,2012-10-22 18:42:00
1:54 PM,64.9,54.0,68,29.78,5.0,NNE,13.8,-,N/A,,Haze,20,2012-10-22 18:54:00
2:54 PM,63.0,55.0,75,29.77,4.0,North,12.7,-,N/A,,Haze,360,2012-10-22 19:54:00
3:54 PM,64.9,54.0,68,29.75,5.0,North,13.8,-,N/A,,Haze,360,2012-10-22 20:54:00
4:54 PM,64.0,54.0,70,29.76,5.0,North,11.5,-,N/A,,Haze,360,2012-10-22 21:54:00
5:54 PM,64.0,55.0,73,29.76,5.0,North,11.5,-,N/A,,Haze,360,2012-10-22 22:54:00
6:35 PM,62.6,53.6,72,29.77,6.0,North,6.9,-,N/A,,Haze,350,2012-10-22 23:35:00
6:54 PM,62.1,54.0,75,29.75,6.0,NNW,8.1,-,0.00,Rain,Light Rain,340,2012-10-22 23:54:00
7:24 PM,60.8,53.6,77,29.77,6.0,North,8.1,-,0.00,,Haze,350,2012-10-23 00:24:00
7:54 PM,61.0,53.1,75,29.75,6.0,NNW,8.1,-,0.00,,Haze,340,2012-10-23 00:54:00
8:02 PM,60.8,53.6,77,29.77,6.0,NNW,11.5,-,N/A,,Haze,340,2012-10-23 01:02:00
8:42 PM,62.6,53.6,72,29.77,6.0,NNW,6.9,-,N/A,,Haze,330,2012-10-23 01:42:00
8:54 PM,62.1,54.0,75,29.75,7.0,NNW,9.2,-,0.00,Rain,Light Rain,340,2012-10-23 01:54:00
9:54 PM,60.1,55.0,83,29.73,5.0,Variable,3.5,-,0.02,,Haze,0,2012-10-23 02:54:00
10:54 PM,59.0,54.0,83,29.74,5.0,SW,6.9,-,N/A,,Haze,220,2012-10-23 03:54:00
11:20 PM,59.0,53.6,82,29.76,5.0,WSW,8.1,-,N/A,,Haze,250,2012-10-23 04:20:00
11:47 PM,59.0,53.6,82,29.75,5.0,West,5.8,-,N/A,,Haze,280,2012-10-23 04:47:00